Location: Nora Junction
(43.1400°N, 93.0163°W)
Time: 23:38:06
(UTC+00:00)

SL-16 R/B - Pass Details

Date: 18 November 2025
Orbit: 840 x 847 km, 71.0° (Epoch: 14 December)

Event Time Altitude Azimuth Distance (km) Brightness Sun altitude
Exits shadow 12:24:31 - 275° (W) 2,541 4.1 -8.3°
Reaches altitude 10° 12:24:49 10° 278° (W) 2,473 4.0 -8.3°
Maximum altitude 12:28:14 16° 315° (NW) 2,078 3.7 -7.7°
Drops below altitude 10° 12:31:40 10° 352° (N) 2,480 4.4 -7.1°
Sets 12:35:10 0° 14° (NNE) 3,419 5.3 -6.5°
